Wind_Speed
31 29 30 30 30 30 29 29 27 26 25 25 25 25 26 26 26 26 27 28 29 31 34 35 36 33 34 37 41 43 44 46 45 45 43 44 44 45 47 49 51 53 52
32 30 30 29 28 28 28 27 26 26 26 26 26 27 28 28 29 29 30 32 34 36 38 39 41 40 42 45 47 48 49 50 52 51 50 50 50 51 52 53 54 54 52
32 32 32 30 29 29 28 28 28 28 28 28 28 29 30 30 31 33 34 36 38 38 38 41 42 45 49 52 53 55 55 55 54 54 55 53 53 54 56 57 55 55 56
33 33 32 32 32 31 29 29 28 28 28 29 30 31 31 32 33 35 36 38 40 42 44 46 48 50 52 54 56 56 55 56 56 54 55 56 56 56 56 55 56 57 57
36 35 34 33 32 31 31 31 31 31 32 33 34 35 36 37 39 40 41 43 45 47 49 49 50 51 53 54 56 57 57 57 56 57 56 56 55 55 56 56 57 58 59
39 38 36 36 35 36 36 35 35 36 35 36 36 37 37 39 41 43 44 46 47 49 50 51 52 52 53 54 56 57 58 57 57 56 54 55 56 57 57 59 59 61 63
40 40 39 38 38 38 39 40 39 40 40 41 41 41 41 42 43 45 47 48 49 51 51 52 53 55 56 57 58 58 58 58 58 58 60 62 61 63 62 62 63 63 65
45 44 42 41 41 41 43 43 43 43 44 44 43 43 45 47 49 50 50 51 51 52 54 56 57 59 59 59 59 60 60 60 60 61 63 61 61 61 62 64 63 66 67
49 47 45 44 44 44 44 45 46 46 47 47 47 50 52 53 53 52 54 55 57 57 57 58 59 60 59 59 59 60 60 62 63 63 64 63 64 65 66 67 67 69 70
55 53 52 52 50 50 49 49 48 50 52 53 53 54 55 57 58 58 60 60 59 59 60 61 60 60 60 60 60 61 62 62 64 64 63 65 64 63 65 67 68 69 69
58 58 56 55 55 54 53 52 54 54 55 55 58 59 61 62 61 62 63 62 61 62 61 62 62 62 62 62 62 61 61 63 65 64 65 63 64 67 66 66 68 68 66
62 61 59 58 58 57 58 60 61 60 61 62 63 63 64 65 65 64 62 62 63 62 63 64 64 64 62 63 63 65 65 64 64 64 62 64 64 63 63 64 62 63 59
66 65 61 61 63 64 65 67 67 68 69 67 68 65 66 66 65 64 63 63 63 66 67 68 67 66 65 65 65 65 66 66 66 64 62 64 62 60 60 62 61 61 54
70 69 67 66 67 68 70 70 70 70 70 69 67 66 66 64 63 65 65 67 68 69 69 70 70 68 70 69 68 68 67 67 66 64 65 60 59 60 60 59 55 54 49
73 71 70 69 70 71 71 72 71 69 68 66 64 65 64 65 67 70 71 71 70 71 72 73 73 72 70 69 68 68 68 68 68 67 65 63 62 59 59 57 56 56 53
73 71 71 70 70 70 70 68 67 65 65 66 67 69 71 71 71 72 72 72 73 72 73 73 72 72 70 70 69 69 69 71 68 66 63 62 63 61 59 58 57 57 55
74 72 73 72 69 68 68 68 67 68 70 71 72 73 72 71 72 73 73 72 73 73 72 73 73 73 72 71 70 70 71 70 67 66 64 67 64 65 61 62 61 59 58
72 72 70 70 69 70 71 72 72 71 70 71 72 72 73 72 72 73 74 74 75 74 73 73 74 74 73 71 73 74 73 69 67 66 68 68 69 68 64 65 64 62 60
73 73 73 71 71 71 72 70 71 72 72 74 72 73 73 75 76 75 76 78 78 78 77 77 77 76 73 73 73 72 67 69 69 69 70 70 71 69 68 68 68 66 65
72 72 73 72 71 74 73 73 74 73 76 80 77 75 75 77 81 83 83 83 83 81 83 82 81 78 77 77 76 72 72 72 71 73 72 72 72 71 68 69 68 68 69
73 73 73 74 75 79 78 75 77 80 79 77 80 80 82 85 86 87 87 87 86 84 85 84 84 82 78 76 76 76 72 72 73 76 74 73 74 72 69 68 69 71 67
76 75 76 79 78 79 80 79 75 80 82 85 86 88 88 90 93 94 92 92 90 91 90 88 86 82 82 80 76 74 71 72 75 76 77 76 74 74 72 72 73 69 69
82 80 82 80 80 81 80 82 85 86 91 94 97 97 100 99 99 96 95 93 95 91 92 91 89 88 86 83 80 78 76 76 79 80 79 78 76 76 78 78 78 75 77
85 82 83 82 81 82 86 89 93 96 95 98 101 102 102 101 99 97 96 96 94 93 91 92 92 89 89 84 85 82 83 81 82 81 80 79 80 79 82 83 80 77 73
86 86 85 84 86 87 90 93 94 97 98 98 100 100 100 99 100 98 95 95 95 93 93 94 93 92 94 92 90 89 88 84 82 80 79 81 84 86 83 84 81 76 74
88 87 87 88 90 93 94 96 98 101 103 102 99 97 97 99 99 99 100 99 97 98 97 96 97 96 95 96 93 91 89 84 81 81 85 86 89 88 86 85 83 78 79
Wind_Direction
219 222 225 228 230 233 235 239 243 248 250 256 258 262 265 271 272 273 273 275 281 285 286 287 290 288 292 293 293 293 294 297 298 297 294 292 292 292 293 292 293 294 292
217 218 223 226 228 231 236 242 247 250 254 258 262 268 270 272 274 274 275 278 280 284 287 289 290 284 287 294 296 299 298 297 298 298 297 295 294 295 296 295 293 293 293
221 221 226 229 233 236 240 243 247 252 257 263 267 268 269 272 273 272 275 279 283 285 289 291 292 291 290 294 295 297 297 297 297 297 298 297 296 296 297 295 293 294 292
224 227 231 235 237 242 244 248 252 258 263 268 272 276 277 277 277 278 280 282 285 287 287 289 290 291 291 292 293 295 295 295 295 295 294 294 295 295 294 292 293 292 293
229 230 231 236 242 247 252 256 260 262 264 268 270 271 273 275 277 279 281 283 286 288 288 290 291 291 292 292 293 292 292 293 294 294 295 294 294 294 294 294 295 293 293
231 235 239 242 246 250 254 253 257 263 264 266 269 272 275 278 279 282 285 286 288 288 288 288 289 289 289 289 290 291 291 292 293 293 293 293 293 294 295 293 294 295 294
236 239 241 244 248 251 254 256 257 258 262 265 268 273 276 280 283 284 284 284 286 287 286 287 288 289 290 290 290 290 292 291 293 292 293 293 294 293 293 293 295 295 295
237 241 246 250 253 254 257 260 262 263 265 268 273 276 280 283 285 285 286 286 287 288 290 292 293 293 292 291 291 291 291 292 293 294 294 294 295 296 295 296 295 297 297
241 244 248 252 255 256 258 261 265 268 271 273 274 275 280 282 284 285 289 291 291 292 291 292 292 293 292 292 291 291 291 292 292 292 294 295 296 298 298 299 297 299 298
246 248 250 253 256 257 258 263 267 270 274 275 275 278 281 284 286 286 289 290 289 289 289 291 291 291 291 292 292 292 293 294 294 294 295 295 298 299 301 299 301 300 297
248 250 252 255 258 261 265 269 272 274 277 280 282 283 284 285 286 287 288 289 288 289 289 291 290 290 290 291 292 293 294 295 294 294 295 298 302 304 306 302 300 299 298
249 252 254 257 262 265 268 270 274 276 279 281 285 286 286 286 286 285 286 286 287 289 289 289 290 291 292 293 293 295 296 296 296 297 297 303 305 304 301 301 301 302 300
251 254 256 259 262 265 269 272 274 278 282 284 287 286 285 286 285 284 283 284 286 288 290 291 290 290 294 295 296 296 297 298 299 301 303 304 303 302 302 305 309 308 306
254 256 257 260 262 265 269 273 276 279 282 284 283 282 282 282 282 282 283 285 287 288 289 290 291 293 295 296 297 298 299 300 301 302 301 302 303 304 306 308 312 320 313
255 256 258 261 264 267 270 274 276 277 278 277 278 279 279 281 282 284 286 286 288 289 290 292 294 296 296 296 297 298 300 301 301 301 300 303 303 307 307 312 315 319 319
256 258 261 264 267 270 273 274 275 275 275 276 277 277 280 282 283 285 286 288 290 291 292 293 295 295 295 296 298 298 298 298 298 298 297 301 302 306 307 310 315 318 323
258 261 263 266 268 270 272 273 274 275 277 279 280 281 282 282 284 287 289 290 291 292 293 294 293 293 294 296 296 295 295 294 295 296 296 300 302 304 307 311 314 316 317
257 260 263 266 269 270 270 272 274 277 278 279 280 282 284 286 287 289 289 290 292 291 291 292 291 291 294 294 294 294 295 293 293 292 295 299 303 305 306 309 312 312 311
259 261 262 265 267 269 272 276 277 277 278 279 282 284 284 286 287 288 289 289 289 290 291 290 291 290 292 291 291 291 291 292 292 292 296 298 302 305 306 308 308 308 308
261 262 263 265 268 270 273 276 278 279 279 281 285 286 284 283 285 287 288 288 289 288 290 290 290 287 286 288 288 289 288 289 292 292 294 297 300 302 303 302 303 302 303
261 263 266 267 269 270 272 275 275 279 283 282 282 282 283 283 283 287 288 288 288 289 289 288 286 286 285 287 287 287 288 288 289 291 293 294 297 297 298 298 297 298 297
260 262 263 265 268 271 273 277 276 277 278 280 281 281 281 282 284 286 286 286 285 287 287 285 283 284 284 285 286 285 285 287 287 289 291 291 291 292 294 296 296 294 293
260 261 264 267 271 273 274 275 276 276 278 280 281 282 282 283 283 284 284 283 284 284 285 284 283 282 283 283 284 285 283 284 286 288 287 287 288 291 292 295 296 294 290
259 263 266 269 271 272 273 275 277 279 281 283 284 285 286 285 284 284 284 284 283 283 282 281 281 282 282 281 282 282 283 284 284 285 285 284 288 289 292 295 294 293 290
261 264 267 268 269 272 275 277 279 279 282 284 285 286 286 286 285 285 284 283 283 281 282 282 282 282 282 282 282 282 282 281 281 280 282 283 287 290 290 290 292 290 288
262 264 266 268 268 271 273 275 278 280 281 283 284 284 284 285 284 286 286 284 283 283 282 281 281 280 280 280 279 279 279 278 276 278 280 283 286 288 287 288 287 284 284
Height
10900 10903 10905 10907 10909 10911 10914 10916 10918 10919 10920 10922 10924 10925 10925 10925 10926 10926 10926 10927 10927 10927 10926 10925 10925 10924 10923 10921 10920 10918 10916 10914 10912 10910 10908 10905 10902 10900 10897 10894 10892 10889 10887
10898 10900 10902 10904 10906 10909 10911 10914 10916 10917 10919 10920 10921 10921 10922 10922 10923 10923 10923 10923 10924 10923 10922 10921 10920 10919 10917 10915 10913 10912 10909 10907 10905 10902 10901 10898 10895 10892 10890 10887 10884 10881 10878
10894 10897 10899 10902 10905 10907 10909 10911 10913 10914 10915 10917 10918 10918 10918 10918 10919 10919 10919 10919 10919 10919 10918 10916 10914 10912 10911 10909 10906 10904 10902 10900 10898 10895 10892 10890 10887 10885 10882 10879 10875 10872 10869
10891 10894 10896 10899 10901 10903 10906 10907 10909 10910 10911 10912 10913 10914 10914 10914 10914 10914 10914 10914 10914 10914 10913 10911 10909 10907 10905 10903 10900 10897 10894 10892 10890 10888 10886 10883 10879 10876 10873 10870 10867 10863 10860
10887 10890 10893 10895 10898 10901 10902 10905 10905 10906 10908 10908 10909 10910 10910 10910 10910 10910 10910 10909 10908 10907 10906 10904 10902 10900 10898 10896 10894 10891 10888 10885 10883 10880 10877 10874 10870 10867 10864 10861 10857 10853 10850
10883 10886 10890 10893 10895 10897 10899 10901 10903 10903 10904 10904 10905 10905 10905 10905 10905 10904 10904 10903 10902 10900 10899 10897 10896 10893 10891 10888 10886 10883 10880 10878 10875 10872 10869 10865 10861 10858 10854 10850 10846 10842 10838
10879 10882 10885 10888 10890 10892 10894 10895 10897 10898 10899 10899 10900 10900 10900 10899 10899 10898 10897 10897 10895 10893 10892 10890 10888 10886 10883 10880 10877 10874 10872 10869 10866 10863 10860 10855 10851 10848 10843 10839 10835 10831 10826
10873 10876 10879 10882 10885 10886 10888 10888 10890 10891 10892 10893 10894 10894 10893 10893 10892 10891 10890 10889 10888 10887 10885 10883 10880 10877 10874 10872 10869 10865 10863 10860 10857 10853 10849 10845 10840 10837 10831 10828 10824 10818 10812
10867 10870 10873 10876 10878 10879 10881 10882 10883 10885 10886 10886 10886 10886 10886 10885 10884 10883 10882 10881 10880 10878 10876 10873 10870 10868 10865 10862 10859 10856 10853 10850 10847 10843 10837 10834 10829 10824 10820 10815 10811 10806 10800
10860 10864 10866 10868 10870 10872 10873 10875 10878 10879 10879 10879 10878 10878 10877 10876 10876 10875 10874 10872 10870 10868 10866 10863 10861 10858 10856 10853 10849 10846 10843 10840 10836 10832 10826 10823 10819 10812 10808 10803 10797 10792 10787
10853 10857 10860 10862 10864 10865 10867 10869 10870 10871 10871 10871 10869 10869 10867 10867 10866 10865 10864 10862 10860 10859 10856 10854 10851 10849 10846 10843 10839 10835 10832 10829 10826 10821 10816 10811 10807 10801 10795 10790 10785 10778 10773
10846 10849 10852 10855 10857 10858 10859 10860 10861 10861 10861 10861 10860 10859 10858 10856 10855 10854 10853 10851 10850 10848 10846 10842 10841 10838 10834 10831 10828 10824 10821 10817 10813 10809 10805 10799 10795 10789 10785 10779 10774 10768 10761
10837 10840 10845 10848 10849 10850 10850 10851 10851 10851 10852 10851 10851 10849 10847 10846 10844 10843 10843 10841 10839 10836 10833 10830 10828 10826 10822 10819 10816 10811 10808 10805 10801 10796 10792 10787 10784 10779 10773 10767 10762 10756 10750
10828 10832 10836 10840 10840 10841 10842 10843 10843 10843 10843 10842 10840 10839 10838 10836 10833 10832 10831 10830 10828 10825 10821 10818 10815 10813 10810 10806 10802 10798 10795 10791 10787 10784 10779 10775 10772 10768 10762 10757 10751 10746 10741
10818 10824 10827 10830 10831 10832 10833 10833 10834 10833 10832 10832 10830 10829 10826 10825 10822 10820 10819 10816 10814 10811 10809 10804 10802 10800 10796 10793 10789 10785 10782 10778 10775 10772 10764 10763 10759 10755 10751 10747 10742 10737 10732
10810 10814 10817 10819 10821 10821 10821 10821 10822 10821 10820 10819 10818 10816 10815 10813 10810 10807 10805 10803 10800 10798 10795 10792 10789 10787 10783 10780 10777 10773 10769 10765 10762 10759 10754 10751 10747 10744 10740 10737 10733 10728 10724
10801 10804 10807 10809 10810 10809 10809 10809 10809 10807 10806 10805 10804 10803 10801 10799 10797 10795 10792 10789 10787 10785 10782 10778 10775 10772 10770 10767 10764 10760 10756 10752 10750 10747 10744 10737 10735 10731 10728 10725 10721 10718 10714
10792 10795 10797 10797 10797 10795 10795 10796 10796 10796 10794 10792 10790 10789 10787 10786 10784 10781 10779 10775 10773 10771 10768 10765 10762 10759 10757 10754 10750 10747 10743 10738 10736 10733 10729 10727 10721 10718 10715 10712 10709 10706 10702
10781 10782 10784 10785 10785 10784 10784 10786 10784 10783 10781 10779 10779 10776 10773 10772 10769 10767 10764 10761 10759 10757 10754 10751 10749 10746 10744 10740 10736 10733 10729 10724 10723 10718 10715 10713 10709 10705 10702 10699 10695 10692 10690
10769 10770 10771 10773 10773 10771 10772 10774 10771 10769 10769 10767 10766 10761 10758 10757 10752 10750 10748 10746 10745 10744 10739 10736 10734 10730 10728 10725 10722 10719 10717 10712 10707 10704 10702 10699 10696 10693 10689 10685 10684 10680 10677
10756 10758 10759 10760 10760 10759 10759 10760 10758 10756 10754 10754 10749 10747 10743 10739 10738 10736 10732 10730 10727 10725 10723 10720 10716 10714 10712 10710 10708 10704 10704 10698 10693 10689 10689 10685 10681 10679 10676 10673 10670 10667 10664
10744 10745 10745 10745 10746 10745 10745 10746 10747 10739 10738 10735 10734 10731 10727 10724 10721 10719 10716 10711 10708 10706 10705 10702 10699 10696 10694 10693 10691 10690 10688 10686 10677 10676 10674 10671 10667 10664 10662 10660 10657 10653 10650
10730 10731 10732 10733 10732 10731 10729 10728 10727 10727 10721 10719 10714 10713 10710 10710 10706 10702 10697 10695 10690 10688 10685 10681 10680 10677 10677 10675 10673 10674 10671 10670 10664 10661 10659 10656 10654 10650 10647 10644 10641 10638 10634
10717 10718 10718 10718 10717 10715 10712 10711 10709 10708 10706 10699 10695 10690 10687 10687 10686 10683 10679 10674 10672 10669 10667 10662 10660 10658 10654 10658 10653 10655 10653 10653 10649 10646 10641 10640 10639 10635 10631 10628 10624 10621 10617
10705 10706 10706 10705 10703 10700 10698 10694 10692 10689 10687 10684 10680 10674 10668 10662 10659 10658 10657 10655 10651 10649 10646 10642 10641 10640 10634 10635 10635 10633 10631 10634 10632 10629 10627 10623 10621 10618 10614 10611 10607 10605 10602
10690 10691 10691 10690 10689 10686 10683 10679 10677 10674 10670 10668 10663 10658 10652 10646 10640 10636 10629 10628 10629 10625 10624 10622 10619 10618 10616 10611 10614 10611 10611 10612 10613 10613 10608 10609 10603 10601 10597 10594 10592 10588 10586